Flag for U.S.A. Weather past 2 weeks in Grand Junction, Colorado, U.S.A.

Now
66 °F

Sunny.


Feels Like: 66 °F
Forecast: 60 / 79 °F
Wind: 9 mph from Southeast

Location: Walker Field

Current Time: Sep 4, 2015 at 7:14:03 PM

Latest Report: Sep 4, 2015 at 5:53 PM


Visibility: 10 mi

Pressure: 29.81 "Hg (25.31 "Hg at 1398m altitude)

Humidity: 73%

Dew point: 57 °F

Location of Grand JunctionLocation

Historic Weather in Grand Junction — Graph

°F

Grand Junction temperature yesterday

Maximum temperature yesterday: 81 °F (at 2:53 PM)
Minimum temperature yesterday: 67 °F (at 6:53 AM)
Average temperature yesterday: 73 °F

Past Weeks' High & Low Weather Summary

 TemperatureHumidityPressure
High94 °F (Aug 21, 4:53 PM)100% (Aug 27, 2:53 AM)30.20 "Hg (Aug 27, 2:53 AM)
Low56 °F (Aug 28, 6:53 AM)9% (Aug 21, 4:53 PM)29.63 "Hg (Aug 21, 4:53 PM)
Average73 °F42%29.91 "Hg
* Reported Aug 20 5:53 PM — Sep 4 5:53 PM, Grand Junction, Weather by CustomWeather, © 2015

Note: Actual official high and low records may vary slightly from our data, if they occured in-between our weather recording intervals... More about our weather records

Advertising

Grand Junction weather history for previous 24 hours

 ConditionsComfort  
Time TempWeatherWind HumidityBarometerVisibility
5:53 PM
Fri, Sep 4
66 °FSunny.9 mph73%29.81 "Hg10 mi
4:53 PM64 °FSunny.20 mph81%29.82 "Hg10 mi
4:00 PM64 °FLight rain. Mostly cloudy.7 mph78%30.00 "Hg8 mi
3:02 PM73 °FThunderstorms. Mostly cloudy.7 mph48%29.99 "Hg9 mi
1:53 PM75 °FOvercast.12 mph39%29.81 "Hg10 mi
12:53 PM74 °FPartly sunny.15 mph40%29.82 "Hg10 mi
11:53 AM76 °FSunny.17 mph39%29.83 "Hg10 mi
10:53 AM72 °FSunny.13 mph46%29.85 "Hg10 mi
9:53 AM68 °FPartly sunny.18 mph53%29.85 "Hg10 mi
8:53 AM67 °FSunny.21 mph55%29.84 "Hg10 mi
7:53 AM66 °FPassing clouds.18 mph56%29.82 "Hg10 mi
6:53 AM66 °FPassing clouds.10 mph54%29.80 "Hg10 mi
5:53 AM64 °FPassing clouds.14 mph58%29.78 "Hg10 mi
4:53 AM65 °FPassing clouds.13 mph56%29.77 "Hg10 mi
3:53 AM62 °FClear.17 mph67%29.76 "Hg10 mi
2:53 AM64 °FClear.21 mph61%29.75 "Hg10 mi
1:53 AM66 °FClear.17 mph56%29.76 "Hg10 mi
12:53 AM67 °FClear.17 mph55%29.76 "Hg10 mi
11:53 PM
Thu, Sep 3
68 °FClear.13 mph53%29.77 "Hg10 mi
10:53 PM70 °FPassing clouds.12 mph49%29.77 "Hg10 mi
9:53 PM72 °FPassing clouds.14 mph44%29.75 "Hg10 mi
8:53 PM73 °FPassing clouds.9 mph43%29.74 "Hg10 mi
7:53 PM75 °FSunny.12 mph40%29.72 "Hg10 mi
Weather by CustomWeather, © 2015

See weather overviewHow to use our weather pages